| time (UTC) | temp F | wind direction | speed MPH | gust MPH | rain 1hr in | rain 24hr in | rain mn in | humidity % | barometer mb |
| 20260905024505 | 63 | 325 | 1.0 | 2.0 | 0.00 | 0.06 | 0.01 | 57 | 1009.9 |
| 20260905023007 | 64 | 325 | 2.0 | 5.0 | 0.00 | 0.06 | 0.01 | 55 | 1009.8 |
| 20260905021505 | 66 | 28 | 1.0 | 6.0 | 0.00 | 0.06 | 0.01 | 53 | 1009.7 |
| 20260905020001 | 68 | 295 | 1.0 | 6.0 | 0.00 | 0.06 | 0.01 | 50 | 1009.5 |
| 20260905014501 | 69 | 275 | 4.0 | 9.0 | 0.00 | 0.06 | 0.01 | 46 | 1009.4 |
| 20260905013000 | 70 | 306 | 4.0 | 8.0 | 0.00 | 0.06 | 0.01 | 45 | 1009.4 |
| 20260905011600 | 72 | 325 | 2.0 | 7.0 | 0.00 | 0.06 | 0.01 | 44 | 1009.3 |
| 20260905010059 | 73 | 279 | 2.0 | 9.0 | 0.00 | 0.06 | 0.01 | 42 | 1009.3 |
| 20260905004628 | 74 | 327 | 3.0 | 8.0 | 0.00 | 0.06 | 0.01 | 41 | 1009.2 |
| 20260905003059 | 74 | 328 | 4.0 | 9.0 | 0.00 | 0.06 | 0.01 | 41 | 1009.2 |
| 20260905001558 | 74 | 341 | 7.0 | 14.0 | 0.00 | 0.06 | 0.01 | 44 | 1009.1 |
| 20260905000058 | 73 | 317 | 5.0 | 14.0 | 0.00 | 0.06 | 0.01 | 43 | 1009.1 |
| 20260904234557 | 75 | 321 | 7.0 | 13.0 | 0.00 | 0.06 | 0.01 | 39 | 1009.1 |
| 20260904233057 | 76 | 329 | 4.0 | 12.0 | 0.00 | 0.06 | 0.01 | 39 | 1009.1 |
| 20260904231555 | 75 | 240 | 5.0 | 10.0 | 0.00 | 0.06 | 0.01 | 36 | 1009.3 |
| 20260904230122 | 75 | 209 | 6.0 | 12.0 | 0.00 | 0.06 | 0.01 | 40 | 1009.3 |
| 20260904224552 | 75 | 209 | 6.0 | 14.0 | 0.00 | 0.06 | 0.01 | 45 | 1009.3 |
| 20260904223051 | 75 | 153 | 6.0 | 12.0 | 0.00 | 0.06 | 0.01 | 47 | 1009.3 |
| 20260904221551 | 76 | 188 | 5.0 | 10.0 | 0.00 | 0.06 | 0.01 | 47 | 1009.4 |
| 20260904220048 | 76 | 67 | 5.0 | 11.0 | 0.00 | 0.06 | 0.01 | 47 | 1009.6 |
| 20260904214543 | 76 | 12 | 5.0 | 12.0 | 0.00 | 0.06 | 0.01 | 47 | 1009.6 |
| 20260904213039 | 75 | 24 | 5.0 | 11.0 | 0.00 | 0.06 | 0.01 | 49 | 1009.6 |
| 20260904211535 | 74 | 24 | 2.0 | 9.0 | 0.00 | 0.06 | 0.01 | 51 | 1009.7 |
| 20260904210035 | 72 | 23 | 4.0 | 14.0 | 0.00 | 0.06 | 0.01 | 55 | 1009.7 |
| 20260904204534 | 72 | 23 | 5.0 | 13.0 | 0.00 | 0.06 | 0.01 | 55 | 1009.6 |
| 20260904203034 | 73 | 103 | 4.0 | 10.0 | 0.00 | 0.06 | 0.01 | 56 | 1009.7 |
| 20260904201532 | 71 | 360 | 1.0 | 6.0 | 0.00 | 0.06 | 0.01 | 59 | 1009.7 |
| 20260904200032 | 72 | 11 | 2.0 | 10.0 | 0.00 | 0.06 | 0.01 | 56 | 1009.7 |
| 20260904194531 | 72 | 294 | 3.0 | 7.0 | 0.00 | 0.06 | 0.01 | 57 | 1009.8 |
| 20260904193037 | 73 | 348 | 2.0 | 9.0 | 0.00 | 0.06 | 0.01 | 57 | 1009.9 |
| 20260904191526 | 72 | 36 | 4.0 | 10.0 | 0.00 | 0.06 | 0.01 | 58 | 1010.1 |
| 20260904190035 | 72 | 76 | 6.0 | 11.0 | 0.00 | 0.06 | 0.01 | 59 | 1010.1 |
| 20260904184519 | 71 | 200 | 3.0 | 5.0 | 0.00 | 0.06 | 0.01 | 53 | 1010.1 |
| 20260904183014 | 70 | 76 | 3.0 | 8.0 | 0.00 | 0.06 | 0.01 | 55 | 1010.2 |
| 20260904181510 | 69 | 326 | 1.0 | 6.0 | 0.00 | 0.06 | 0.01 | 56 | 1010.3 |
| 20260904180007 | 69 | 171 | 1.0 | 5.0 | 0.00 | 0.06 | 0.01 | 58 | 1010.4 |
| 20260904174505 | 69 | 71 | 1.0 | 6.0 | 0.00 | 0.06 | 0.01 | 60 | 1010.4 |
| 20260904173102 | 68 | 49 | 3.0 | 9.0 | 0.00 | 0.06 | 0.01 | 62 | 1010.3 |
| 20260904171556 | 66 | 17 | 3.0 | 5.0 | 0.00 | 0.06 | 0.01 | 66 | 1010.3 |
| 20260904170049 | 65 | 55 | 1.0 | 4.0 | 0.00 | 0.06 | 0.01 | 78 | 1010.3 |
| 20260904164546 | 63 | 200 | 0.0 | 4.0 | 0.00 | 0.06 | 0.01 | 83 | 1010.2 |
| 20260904163041 | 62 | 127 | 3.0 | 5.0 | 0.00 | 0.06 | 0.01 | 89 | 1010.1 |
| 20260904161541 | 61 | 78 | 1.0 | 4.0 | 0.00 | 0.06 | 0.01 | 92 | 1010.0 |
| 20260904160032 | 61 | 188 | 0.0 | 2.0 | 0.00 | 0.06 | 0.01 | 92 | 1010.0 |
| 20260904154531 | 59 | 189 | 0.0 | 1.0 | 0.00 | 0.06 | 0.01 | 92 | 1010.1 |
| 20260904153029 | 58 | 188 | 1.0 | 2.0 | 0.00 | 0.06 | 0.01 | 92 | 1010.1 |
| 20260904151527 | 56 | 190 | 1.0 | 3.0 | 0.00 | 0.06 | 0.01 | 92 | 1010.1 |
| 20260904150027 | 55 | 171 | 2.0 | 4.0 | 0.00 | 0.06 | 0.01 | 92 | 1010.0 |
| 20260904144520 | 54 | 171 | 2.0 | 5.0 | 0.00 | 0.06 | 0.01 | 92 | 1009.8 |
| 20260904143015 | 53 | 180 | 2.0 | 4.0 | 0.00 | 0.06 | 0.01 | 92 | 1009.6 |
| 20260904141511 | 52 | 180 | 2.0 | 4.0 | 0.00 | 0.06 | 0.01 | 92 | 1009.5 |
| 20260904140007 | 52 | 180 | 2.0 | 4.0 | 0.00 | 0.06 | 0.01 | 92 | 1009.5 |
| 20260904134511 | 52 | 171 | 4.0 | 5.0 | 0.00 | 0.06 | 0.01 | 92 | 1009.3 |
| 20260904133002 | 52 | 169 | 3.0 | 4.0 | 0.00 | 0.06 | 0.01 | 92 | 1009.1 |
| 20260904131603 | 53 | 182 | 3.0 | 4.0 | 0.00 | 0.06 | 0.01 | 92 | 1009.0 |
| 20260904130105 | 53 | 184 | 2.0 | 4.0 | 0.00 | 0.06 | 0.01 | 92 | 1009.1 |
| 20260904124600 | 53 | 192 | 2.0 | 4.0 | 0.00 | 0.06 | 0.01 | 92 | 1008.9 |
| 20260904123051 | 54 | 188 | 3.0 | 4.0 | 0.00 | 0.06 | 0.01 | 92 | 1008.9 |
| 20260904121551 | 54 | 163 | 1.0 | 3.0 | 0.00 | 0.06 | 0.01 | 92 | 1009.0 |
| 20260904114543 | 55 | 166 | 0.0 | 4.0 | 0.00 | 0.06 | 0.01 | 92 | 1008.8 |
| 20260904113042 | 55 | 186 | 1.0 | 3.0 | 0.01 | 0.06 | 0.01 | 92 | 1008.6 |
| 20260904111540 | 55 | 192 | 2.0 | 3.0 | 0.01 | 0.06 | 0.01 | 91 | 1008.8 |
| 20260904110036 | 56 | 204 | 2.0 | 4.0 | 0.01 | 0.06 | 0.01 | 92 | 1008.7 |
| 20260904104533 | 56 | 190 | 1.0 | 2.0 | 0.01 | 0.06 | 0.01 | 92 | 1008.6 |
| 20260904103030 | 57 | 190 | 2.0 | 3.0 | 0.00 | 0.05 | 0.00 | 92 | 1008.5 |
| 20260904101531 | 57 | 281 | 1.0 | 2.0 | 0.00 | 0.05 | 0.00 | 91 | 1008.4 |
| 20260904100026 | 58 | 281 | 1.0 | 2.0 | 0.00 | 0.05 | 0.00 | 92 | 1008.4 |
| 20260904094523 | 58 | 281 | 0.0 | 1.0 | 0.00 | 0.05 | 0.00 | 92 | 1008.4 |
| 20260904093025 | 58 | 281 | 0.0 | 2.0 | 0.00 | 0.05 | 0.00 | 91 | 1008.3 |
| 20260904091522 | 58 | 279 | 1.0 | 2.0 | 0.00 | 0.05 | 0.00 | 91 | 1008.2 |
| 20260904090017 | 59 | 132 | 0.0 | 2.0 | 0.00 | 0.05 | 0.00 | 91 | 1008.2 |
| 20260904084516 | 59 | 132 | 1.0 | 4.0 | 0.00 | 0.05 | 0.00 | 91 | 1008.1 |
| 20260904083015 | 59 | 154 | 0.0 | 0.0 | 0.00 | 0.05 | 0.00 | 91 | 1008.2 |
| 20260904081513 | 60 | 155 | 3.0 | 4.0 | 0.00 | 0.05 | 0.00 | 91 | 1008.1 |
| 20260904080011 | 60 | 180 | 2.0 | 3.0 | 0.00 | 0.05 | 0.00 | 91 | 1008.1 |
| 20260904074547 | 60 | 180 | 1.0 | 4.0 | 0.00 | 0.05 | 0.00 | 91 | 1008.0 |
| 20260904073035 | 60 | 167 | 0.0 | 3.0 | 0.00 | 0.05 | 0.00 | 91 | 1008.1 |
| 20260904071529 | 60 | 167 | 2.0 | 6.0 | 0.00 | 0.05 | 0.00 | 91 | 1008.1 |
| 20260904070025 | 60 | 227 | 1.0 | 4.0 | 0.00 | 0.05 | 0.00 | 91 | 1008.0 |
| 20260904064502 | 60 | 330 | 1.0 | 3.0 | 0.02 | 0.05 | 0.05 | 91 | 1008.2 |
| 20260904063002 | 60 | 5 | 0.0 | 6.0 | 0.03 | 0.05 | 0.05 | 90 | 1008.3 |
| 20260904061501 | 60 | 306 | 5.0 | 10.0 | 0.04 | 0.05 | 0.05 | 90 | 1008.1 |
| 20260904054602 | 62 | 355 | 4.0 | 9.0 | 0.03 | 0.03 | 0.03 | 90 | 1007.9 |
| 20260904053104 | 63 | 5 | 1.0 | 5.0 | 0.02 | 0.02 | 0.02 | 90 | 1008.0 |
| 20260904051616 | 63 | 295 | 1.0 | 3.0 | 0.01 | 0.01 | 0.01 | 90 | 1008.1 |
| 20260904050058 | 63 | 181 | 0.0 | 2.0 | 0.00 | 0.00 | 0.00 | 89 | 1008.1 |
| 20260904044600 | 63 | 181 | 0.0 | 3.0 | 0.00 | 0.00 | 0.00 | 89 | 1008.1 |
| 20260904043107 | 63 | 80 | 0.0 | 4.0 | 0.00 | 0.00 | 0.00 | 88 | 1008.0 |
| 20260904041557 | 64 | 219 | 3.0 | 13.0 | 0.00 | 0.00 | 0.00 | 87 | 1007.9 |
| 20260904040057 | 64 | 215 | 5.0 | 11.0 | 0.00 | 0.00 | 0.00 | 87 | 1007.7 |
| 20260904034557 | 65 | 184 | 3.0 | 11.0 | 0.00 | 0.00 | 0.00 | 86 | 1007.5 |
| 20260904033056 | 65 | 237 | 7.0 | 12.0 | 0.00 | 0.00 | 0.00 | 85 | 1007.5 |
| 20260904031556 | 65 | 221 | 1.0 | 3.0 | 0.00 | 0.00 | 0.00 | 84 | 1007.5 |
| 20260904030106 | 65 | 94 | 1.0 | 5.0 | 0.00 | 0.00 | 0.00 | 84 | 1007.2 |
| 20260904024555 | 65 | 86 | 0.0 | 6.0 | 0.00 | 0.00 | 0.00 | 85 | 1007.2 |